EWG10PO EDDH-EDDS

Flight info

Callsign EWG10PO
Flight time N/A
Altitude 35000
Route IDEKO7G/33 IDEKO N850 NIE DCT BERXO DCT SILWE DCT OSBIT P605 TOSTU T726 LBU DCT
Aircraft A320/M-SDE3FGHIRWY/LB1

Departure

Time 2026-04-26 13:11
Airport Hamburg Helmut Schmidt Airport (EDDH)

Arrival

Time N/A
Airport Stuttgart Airport (EDDS)
Time Latitude Longitude Altitude Speed Heading
2026-04-26 12:47 53.63112 10.00376 48 ft 0 kts 87°
2026-04-26 13:03 53.63112 10.00360 47 ft 4 kts 88°
2026-04-26 13:03 53.63112 10.00314 43 ft 4 kts 94°
2026-04-26 13:03 53.63115 10.00270 44 ft 4 kts 106°
2026-04-26 13:04 53.63126 10.00231 45 ft 4 kts 143°
2026-04-26 13:04 53.63139 10.00222 47 ft 1 kts 176°
2026-04-26 13:04 53.63141 10.00222 48 ft 0 kts 176°
2026-04-26 13:08 53.63138 10.00222 47 ft 4 kts 176°
2026-04-26 13:08 53.63079 10.00225 48 ft 9 kts 189°
2026-04-26 13:08 53.63024 10.00183 48 ft 9 kts 198°
2026-04-26 13:08 53.62945 10.00130 46 ft 13 kts 210°
2026-04-26 13:09 53.62902 10.00085 47 ft 10 kts 215°
2026-04-26 13:09 53.62903 10.00028 48 ft 0 kts 307°
2026-04-26 13:09 53.62892 10.00003 48 ft 3 kts 191°
2026-04-26 13:09 53.62845 9.99967 47 ft 15 kts 232°
2026-04-26 13:10 53.62827 9.99786 42 ft 17 kts 308°
2026-04-26 13:10 53.62944 9.99678 45 ft 26 kts 333°
2026-04-26 13:10 53.63340 9.99334 47 ft 100 kts 333°
2026-04-26 13:10 53.64146 9.98633 55 ft 158 kts 333°
2026-04-26 13:11 53.65164 9.97777 589 ft 164 kts 333°
2026-04-26 13:11 53.66202 9.96884 1278 ft 171 kts 332°
2026-04-26 13:11 53.67309 9.95914 1812 ft 187 kts 332°
2026-04-26 13:11 53.68538 9.94852 2235 ft 209 kts 332°
2026-04-26 13:12 53.69863 9.93720 3049 ft 214 kts 332°
2026-04-26 13:12 53.71039 9.92211 3932 ft 216 kts 303°
2026-04-26 13:12 53.71491 9.89791 4593 ft 229 kts 266°
2026-04-26 13:12 53.71110 9.87045 4913 ft 254 kts 252°
2026-04-26 13:13 53.70543 9.84184 4949 ft 258 kts 251°
2026-04-26 13:13 53.69945 9.81322 4955 ft 259 kts 250°
2026-04-26 13:13 53.69344 9.78448 4957 ft 260 kts 250°
2026-04-26 13:13 53.68750 9.75563 4959 ft 260 kts 251°
2026-04-26 13:14 53.68167 9.72674 4958 ft 260 kts 251°
2026-04-26 13:14 53.67592 9.69787 4958 ft 260 kts 251°
2026-04-26 13:14 53.67020 9.66902 4957 ft 259 kts 251°
2026-04-26 13:14 53.66445 9.63975 5289 ft 267 kts 251°
2026-04-26 13:15 53.65645 9.61181 5325 ft 263 kts 235°
2026-04-26 13:15 53.64373 9.58996 5328 ft 262 kts 216°
2026-04-26 13:15 53.62751 9.57610 5330 ft 264 kts 198°
2026-04-26 13:15 53.60903 9.57100 5896 ft 272 kts 187°
2026-04-26 13:16 53.59015 9.56749 6926 ft 275 kts 187°
2026-04-26 13:16 53.57097 9.56367 7793 ft 280 kts 188°
2026-04-26 13:16 53.55165 9.55972 8637 ft 287 kts 189°
2026-04-26 13:16 53.53163 9.55560 9489 ft 293 kts 189°
2026-04-26 13:17 53.49024 9.54716 10290 ft 303 kts 189°
2026-04-26 13:17 53.46830 9.54274 10336 ft 332 kts 189°
2026-04-26 13:18 53.42132 9.53355 10327 ft 343 kts 189°
2026-04-26 13:18 53.39758 9.52895 10328 ft 344 kts 189°
2026-04-26 13:18 53.34970 9.51963 10658 ft 350 kts 189°
2026-04-26 13:19 53.32572 9.51494 11607 ft 349 kts 189°
2026-04-26 13:19 53.30148 9.51022 12465 ft 352 kts 189°
2026-04-26 13:19 53.27701 9.50545 13279 ft 356 kts 189°
2026-04-26 13:19 53.25226 9.50061 14068 ft 360 kts 189°
2026-04-26 13:20 53.22726 9.49569 14768 ft 363 kts 189°
2026-04-26 13:20 53.20204 9.49077 15473 ft 366 kts 190°
2026-04-26 13:20 53.17661 9.48584 16181 ft 369 kts 190°
2026-04-26 13:20 53.15103 9.48090 16879 ft 372 kts 190°
2026-04-26 13:21 53.12520 9.47590 17577 ft 375 kts 190°
2026-04-26 13:21 53.10795 9.47254 18029 ft 377 kts 190°
2026-04-26 13:21 53.07287 9.46571 18898 ft 382 kts 190°
2026-04-26 13:21 53.04639 9.46057 19491 ft 385 kts 190°
2026-04-26 13:22 53.01970 9.45542 20087 ft 387 kts 190°
2026-04-26 13:22 52.99281 9.45025 20695 ft 390 kts 190°
2026-04-26 13:22 52.96576 9.44484 21295 ft 393 kts 191°
2026-04-26 13:22 52.93855 9.43907 21894 ft 396 kts 191°
2026-04-26 13:23 52.91116 9.43309 22495 ft 398 kts 191°
2026-04-26 13:23 52.88357 9.42707 23080 ft 401 kts 191°
2026-04-26 13:23 52.85577 9.42106 23644 ft 404 kts 191°
2026-04-26 13:23 52.82785 9.41503 24168 ft 407 kts 191°
2026-04-26 13:24 52.79969 9.40897 24615 ft 409 kts 191°
2026-04-26 13:24 52.77134 9.40289 25063 ft 412 kts 191°
2026-04-26 13:24 52.74282 9.39681 25510 ft 414 kts 191°
2026-04-26 13:24 52.71414 9.39073 25930 ft 417 kts 191°
2026-04-26 13:25 52.68528 9.38464 26350 ft 419 kts 191°
2026-04-26 13:25 52.65626 9.37858 26763 ft 422 kts 190°
2026-04-26 13:25 52.62673 9.37668 27152 ft 428 kts 180°
2026-04-26 13:25 52.59697 9.38295 27555 ft 435 kts 171°
2026-04-26 13:26 52.56736 9.39410 27942 ft 438 kts 170°
2026-04-26 13:26 52.53759 9.40535 28325 ft 440 kts 170°
2026-04-26 13:26 52.50771 9.41660 28697 ft 443 kts 170°
2026-04-26 13:26 52.47760 9.42790 29062 ft 445 kts 171°
2026-04-26 13:27 52.44731 9.43920 29417 ft 447 kts 171°
2026-04-26 13:27 52.41687 9.45052 29754 ft 450 kts 171°
2026-04-26 13:27 52.38626 9.46186 30086 ft 452 kts 171°
2026-04-26 13:27 52.35550 9.47323 30416 ft 454 kts 171°
2026-04-26 13:28 52.32461 9.48460 30694 ft 456 kts 171°
2026-04-26 13:28 52.29361 9.49600 30969 ft 457 kts 171°
2026-04-26 13:28 52.26250 9.50749 31239 ft 459 kts 171°
2026-04-26 13:28 52.23131 9.51904 31508 ft 460 kts 170°
2026-04-26 13:29 52.20000 9.53064 31762 ft 461 kts 171°
2026-04-26 13:29 52.17923 9.53833 31962 ft 461 kts 170°
2026-04-26 13:29 52.13745 9.55374 32453 ft 459 kts 171°